AirNav   Everest Fuels
 
 1116 users online  

95OK Barcus Field Airport
Claremore, Oklahoma, USA

GOING TO CLAREMORE?


FAA INFORMATION EFFECTIVE 01 DECEMBER 2022

Location

FAA Identifier: 95OK
Lat/Long: 36-16-03.3400N 095-37-50.5200W
36-16.055667N 095-37.842000W
36.2675944,-95.6307000
(estimated)
Elevation: 660 ft. / 201 m (estimated)
Variation: 05E (1995)
From city: 3 miles N of CLAREMORE, OK
Time zone: UTC -6 (UTC -5 during Daylight Saving Time)
Zip code: 74017

Airport Operations

Airport use: Private use. Permission required prior to landing
Activation date: 01/1998
Control tower: no
ARTCC: KANSAS CITY CENTER
FSS: MC ALESTER FLIGHT SERVICE STATION
Attendance: UNATNDD
Segmented circle: no

Airport Communications

WX AWOS-3P at GCM (7 nm E): 119.925 (918-343-0184)
WX ASOS at TUL (13 nm W): PHONE 918-831-6772
WX AWOS-3PT at H71 (15 nm E): 120.1 (918-476-0517)

Nearby radio navigation aids

VOR radial/distance  VOR name  Freq  Var
TULr053/8.7TULSA VORTAC114.4008E
OKMr010/36.3OKMULGEE VOR/DME114.9008E
BVOr143/38.8BARTLESVILLE VOR/DME117.9008E

Airport Services

Runway Information

Runway 17/35

Dimensions: 2500 x 50 ft. / 762 x 15 m
Surface: turf
RUNWAY 17  RUNWAY 35
Traffic pattern: rightleft
Obstructions: 17 ft. road, 350 ft. from runway15 ft. road, 20 ft. from runway

Airport Ownership and Management from official FAA records

Ownership: Privately-owned
Owner: LARRY MELTON
PO BOX 1028, 23955 S. 4140 RD
CLAREMORE, OK 74018
Phone (918) 633-9453
918-633-9453
Manager: LARRY MELTON
PO BOX 1028, 23955 S. 4140 RD.
CLAREMORE, OK 74018
Phone (918) 633-9453
PHYSICAL ADDRESS FOR AIRPORT

Airport Operational Statistics

Aircraft based on the field: 2
Single engine airplanes: 2
    

Additional Remarks

FOR CD CTC TULSA APCH AT 918-831-6714/6720.

Instrument Procedures

There are no published instrument procedures at 95OK.

Some nearby airports with instrument procedures:

KGCM - Claremore Regional Airport (7 nm E)
KTUL - Tulsa International Airport (13 nm W)
H71 - Mid-America Industrial Airport (15 nm E)
KRVS - Tulsa Riverside Airport (22 nm SW)
H68 - Hefner-Easley Airport (23 nm SE)
 
Loc | Ops | Rwys | IFR | FBO | Links
Com | Nav | Svcs | Stats | Notes
Area around 95OK (Barcus Field Airport)
 
Road maps at: MapQuest Bing Google
 
Aerial photo
No photo
 
Sectional chart

 
Airport distance calculator
Flying to Barcus Field Airport? Find the distance to fly.

From to 95OK

Sunrise and sunset
Times for 06-Dec-2022
 Local
(UTC-6)
 Zulu
(UTC)
Morning civil twilight06:5212:52
Sunrise07:2113:21
Sunset17:0623:06
Evening civil twilight17:3523:35

Current date and time
Zulu (UTC)  07-Dec-2022 02:53:17
Local (UTC-6)  06-Dec-2022 20:53:17
 
METAR
KGCM 
7nm E 
070235Z AUTO 35004KT 1 3/4SM BR OVC005 07/07 A3007 RMK AO2
KTUL 
13nm W 
070153Z 32004KT 5SM -DZ BR OVC009 07/07 A3006 RMK AO2 DZB49 SLP179 P0000 T00720067
KH71 
15nm E 
070235Z AUTO 34007KT 2SM BR OVC005 08/07 A3006 RMK AO2
TAF
KTUL 
13nm W 
061736Z 0618/0718 32009KT 3SM -DZ BR OVC007 TEMPO 0618/0620 1SM BR OVC004 FM062100 35007KT P6SM OVC015 FM070600 02005KT 5SM BR OVC007 FM071500 03005KT P6SM OVC025
NOTAMs
Click for the latest NOTAMs
NOTAMs are issued by the DoD/FAA and will open in a separate window not controlled by AirNav.

 

 
 

Would you like to see your business listed on this page?

 If your business provides an interesting product or service to pilots, flight crews, aircraft, or users of the Barcus Field Airport, you should consider listing it here.  To start the listing process, click on the button below
 
Add a business
 

Other Pages about Barcus Field Airport

Update a link
 
Copyright © AirNav, LLC. All rights reserved. Privacy Policy  Contact